Parkersburg, WV

10:49 PM EDT on June 24, 2017 (GMT -0400)
Wood County Wilson

Weather History for KPKB - October, 2012

Change the Weather History Date:

Sunday, October 7, 2012

  Actual Average Record
Temperature  
Mean Temperature 46 °F 58 °F  
Max Temperature 51 °F 69 °F 91 °F (1941)
Min Temperature 41 °F 47 °F 29 °F (1935)
Degree Days  
Heating Degree Days 19 8  
Month to date heating degree days 38 49  
Since 1 July heating degree days 139 125  
Cooling Degree Days 0 1  
Month to date cooling degree days 12 7  
Year to date cooling degree days 1172 943  
Moisture  
Dew Point 38 °F    
Average Humidity 71    
Maximum Humidity 89    
Minimum Humidity 52    
Precipitation  
Precipitation T in 0.09 in 0.83 in (2005)
Month to date precipitation 0.34 0.62  
Year to date precipitation 33.14 32.49  
Sea Level Pressure  
Sea Level Pressure 30.16 in    
Wind  
Wind Speed 3 mph (NNW)    
Max Wind Speed 12 mph    
Max Gust Speed 17 mph    
Visibility 10 miles    
Events Rain    
T = Trace of Precipitation, MM = Missing Value Source: NWS Daily Summary

Daily Weather History Graph

Daily Weather History Graph

Search for Another Location

Airport or City:

Trip Planner

Search our weather history database for the weather conditions in past years. The results will help you decide how hot, cold, wet, or windy it might be!

Date:

Astronomy

Oct. 07, 2012 Rise Set
Actual Time 7:28 AM EDT 6:58 PM EDT
Civil Twilight 7:01 AM EDT 7:24 PM EDT
Nautical Twilight 6:30 AM EDT 7:55 PM EDT
Astronomical Twilight 5:59 AM EDT 8:27 PM EDT
Moon No Moon Rise 2:02 PM EDT (10/7)
Length of Visible Light 12h 23m
Length of Day
11h 30m
Waning Gibbous, 56% of the Moon is Illuminated
Oct 7
Waning Gibbous
Oct 8
Last Quarter
Oct 15
New
Oct 21
First Quarter
Oct 29
Full

Hourly Weather History & Observations

Time (EDT) Temp. Windchill Dew Point Humidity Pressure Visibility Wind Dir Wind Speed Gust Speed Precip Events Conditions
12:53 AM 48.9 °F - 39.9 °F 71% 30.12 in 10.0 mi North 3.5 mph - N/A   Overcast
1:53 AM 48.9 °F - 39.0 °F 69% 30.11 in 10.0 mi NNW 4.6 mph - N/A   Overcast
2:53 AM 48.9 °F - 37.9 °F 66% 30.11 in 10.0 mi NE 3.5 mph - N/A   Overcast
3:53 AM 48.0 °F - 39.0 °F 71% 30.11 in 10.0 mi NNW 3.5 mph - N/A   Overcast
4:53 AM 46.9 °F - 39.0 °F 74% 30.11 in 10.0 mi North 3.5 mph - N/A   Overcast
5:53 AM 46.9 °F - 37.9 °F 71% 30.10 in 10.0 mi NNE 4.6 mph - N/A   Overcast
6:53 AM 46.0 °F - 39.0 °F 76% 30.12 in 10.0 mi Calm Calm - N/A   Overcast
7:53 AM 46.0 °F 44.8 °F 37.9 °F 73% 30.12 in 10.0 mi NNW 3.5 mph - N/A   Overcast
8:53 AM 46.9 °F - 37.0 °F 68% 30.14 in 10.0 mi NNW 4.6 mph - N/A   Overcast
9:53 AM 48.9 °F - 35.1 °F 59% 30.13 in 10.0 mi NNE 6.9 mph - N/A   Overcast
10:53 AM 50.0 °F - 37.0 °F 61% 30.13 in 10.0 mi NW 3.5 mph - N/A   Overcast
11:53 AM 48.9 °F - 37.0 °F 64% 30.14 in 10.0 mi Calm Calm - N/A   Overcast
12:53 PM 48.9 °F - 37.9 °F 66% 30.16 in 10.0 mi WNW 9.2 mph - N/A   Overcast
1:53 PM 48.9 °F - 39.0 °F 69% 30.15 in 10.0 mi West 3.5 mph - 0.00 in Rain Light Rain
2:53 PM 48.0 °F - 37.0 °F 66% 30.16 in 10.0 mi NNW 4.6 mph - 0.00 in   Overcast
3:40 PM 48.2 °F - 39.2 °F 71% 30.16 in 10.0 mi WNW 4.6 mph - 0.00 in   Overcast
3:53 PM 48.0 °F - 37.9 °F 68% 30.17 in 10.0 mi Variable 4.6 mph - 0.00 in   Overcast
4:01 PM 48.2 °F - 37.4 °F 66% 30.17 in 10.0 mi NW 6.9 mph - 0.00 in Rain Light Rain
4:13 PM 46.4 °F 42.4 °F 37.4 °F 71% 30.16 in 10.0 mi WNW 8.1 mph - 0.00 in Rain Light Rain
4:53 PM 50.0 °F - 37.0 °F 61% 30.17 in 10.0 mi WNW 6.9 mph 17.3 mph 0.00 in   Overcast
5:53 PM 50.0 °F - 34.0 °F 54% 30.17 in 10.0 mi SW 5.8 mph - N/A   Clear
6:53 PM 46.9 °F - 36.0 °F 66% 30.19 in 10.0 mi Calm Calm - N/A   Scattered Clouds
7:53 PM 45.0 °F - 39.9 °F 82% 30.19 in 10.0 mi Calm Calm - N/A   Overcast
8:53 PM 46.0 °F - 39.0 °F 76% 30.22 in 10.0 mi Calm Calm - N/A   Overcast
9:53 PM 45.0 °F - 41.0 °F 86% 30.23 in 10.0 mi Calm Calm - N/A   Overcast
10:53 PM 45.0 °F - 39.0 °F 80% 30.22 in 10.0 mi Calm Calm - N/A   Overcast
11:53 PM 42.1 °F - 39.9 °F 92% 30.23 in 7.0 mi Calm Calm - N/A   Overcast